Lake Fork Reservoir Weather Center

Moon Phase Calendar



Lake Fork Reservoir Water Level
Online Cameras

 


      

Current Conditions in Gunter
8/3/2021 7:02:37 PM

86°F
Feels Like 93
Clear
Humidity
63%
Pressure
29.94"
Wind
0
Dew Point
72°F
UV Index
0/10 (Low)
Visibility
6 mi

Hourly Forecast

Date & Time Tue, Aug 3
7:00 PM
Tue, Aug 3
8:00 PM
Tue, Aug 3
9:00 PM
Tue, Aug 3
10:00 PM
Tue, Aug 3
11:00 PM
Wed, Aug 4
12:00 AM
Wed, Aug 4
1:00 AM
Wed, Aug 4
2:00 AM
Wed, Aug 4
3:00 AM
Wed, Aug 4
4:00 AM
Wed, Aug 4
5:00 AM
Wed, Aug 4
6:00 AM
Wed, Aug 4
7:00 AM
Wed, Aug 4
8:00 AM
Wed, Aug 4
9:00 AM
Wed, Aug 4
10:00 AM
Wed, Aug 4
11:00 AM
Wed, Aug 4
12:00 PM
Wed, Aug 4
1:00 PM
Wed, Aug 4
2:00 PM
Wed, Aug 4
3:00 PM
Wed, Aug 4
4:00 PM
Wed, Aug 4
5:00 PM
Wed, Aug 4
6:00 PM
Wed, Aug 4
7:00 PM
Wed, Aug 4
8:00 PM
Wed, Aug 4
9:00 PM
Wed, Aug 4
10:00 PM
Wed, Aug 4
11:00 PM
Thu, Aug 5
12:00 AM
Thu, Aug 5
1:00 AM
Thu, Aug 5
2:00 AM
Thu, Aug 5
3:00 AM
Thu, Aug 5
4:00 AM
Thu, Aug 5
5:00 AM
Thu, Aug 5
6:00 AM
Thu, Aug 5
7:00 AM
Thu, Aug 5
8:00 AM
Thu, Aug 5
9:00 AM
Thu, Aug 5
10:00 AM
Thu, Aug 5
11:00 AM
Thu, Aug 5
12:00 PM
Thu, Aug 5
1:00 PM
Thu, Aug 5
2:00 PM
Thu, Aug 5
3:00 PM
Thu, Aug 5
4:00 PM
Thu, Aug 5
5:00 PM
Thu, Aug 5
6:00 PM
Condition
Clear

Clouds

Clouds

Clouds

Clouds

Clouds

Clouds

Clouds

Clouds

Clouds

Clouds

Clouds

Clouds

Clouds

Clouds

Clouds

Clouds

Clouds

Clouds

Clouds

Clouds

Clouds

Clouds

Clouds

Clouds

Clouds

Clouds

Clouds

Clouds

Clouds

Clouds

Clear

Clear

Clear

Clear

Clear

Clear

Clouds

Clouds

Clouds

Clouds

Clouds

Clouds

Clouds

Clouds

Clouds

Clouds

Clouds
Temperature 86°F85°F83°F81°F80°F78°F77°F76°F75°F73°F71°F71°F71°F73°F74°F74°F76°F79°F82°F85°F88°F89°F88°F86°F85°F81°F80°F78°F76°F75°F73°F72°F70°F69°F68°F68°F67°F70°F75°F79°F83°F86°F89°F90°F91°F91°F90°F88°F
Feels Like 93°F91°F87°F85°F80°F78°F78°F77°F76°F74°F72°F71°F72°F73°F74°F75°F77°F79°F83°F86°F88°F89°F88°F87°F86°F82°F80°F78°F76°F74°F73°F72°F70°F68°F68°F67°F67°F70°F75°F79°F83°F85°F88°F89°F89°F89°F89°F88°F
Cloudiness 1%16%31%50%67%87%88%92%82%73%63%60%61%90%95%97%97%95%95%99%82%69%69%72%72%77%86%89%92%89%82%3%4%3%3%4%4%89%93%93%95%96%96%100%100%100%100%100%
Visibility 6 mi6 mi6 mi6 mi6 mi6 mi6 mi6 mi6 mi6 mi6 mi6 mi6 mi6 mi6 mi6 mi6 mi6 mi6 mi6 mi6 mi6 mi6 mi6 mi6 mi6 mi6 mi6 mi6 mi6 mi6 mi6 mi6 mi6 mi6 mi6 mi6 mi6 mi6 mi6 mi6 mi6 mi6 mi6 mi6 mi6 mi6 mi6 mi
Precipitation 0%0%0%0%0%0%0%0%0%0%0%0%0%0%0%0%0%0%0%0%0%0%0%0%0%0%0%0%0%0%0%0%0%0%0%0%0%0%0%0%0%0%0%0%0%0%0%0%
Humidity 63%64%64%65%64%62%64%66%69%74%78%79%77%74%71%68%63%56%51%47%42%39%39%45%49%49%49%52%56%58%59%59%61%65%68%69%71%68%58%50%45%40%37%35%33%33%33%37%
Dew Point 72°F71°F70°F69°F67°F64°F64°F64°F64°F64°F64°F64°F64°F64°F64°F63°F62°F62°F62°F62°F62°F61°F60°F62°F63°F60°F59°F59°F59°F59°F58°F57°F56°F56°F57°F57°F57°F59°F59°F59°F59°F59°F59°F58°F58°F57°F58°F59°F
Pressure 29.94"29.94"29.94"29.94"29.94"29.97"29.97"29.94"29.94"29.94"29.97"29.97"30"30.03"30.03"30.03"30.03"30.03"30.03"30.03"30"29.97"29.97"29.97"29.97"29.97"30"30"30"30"30"30"30"30.03"30.03"30.03"30.06"30.09"30.09"30.09"30.09"30.06"30.06"30.03"30"30"29.97"29.97"
Wind Speed 6.4 mph5.8 mph6 mph6.6 mph7 mph8.6 mph8.8 mph8.2 mph7.7 mph6.5 mph5.9 mph5.3 mph5.5 mph6.3 mph6.4 mph6.6 mph6.8 mph6.1 mph5.5 mph4.8 mph4.6 mph4.1 mph4.2 mph3.6 mph3.2 mph2.9 mph2.9 mph4.2 mph5.1 mph5.8 mph5.8 mph6.2 mph7.1 mph6.2 mph6 mph5.6 mph5.7 mph4.9 mph5.4 mph5.1 mph4.9 mph4.8 mph4.2 mph3.4 mph3.1 mph3 mph4.4 mph5.6 mph
Wind
Direction
48°
NE
57°
ENE
59°
ENE
58°
ENE
65°
ENE
80°
E
87°
E
87°
E
92°
E
79°
E
70°
ENE
70°
ENE
77°
ENE
84°
E
89°
E
95°
E
98°
E
105°
ESE
109°
ESE
105°
ESE
100°
E
84°
E
78°
ENE
93°
E
105°
ESE
103°
ESE
85°
E
74°
ENE
92°
E
110°
ESE
118°
ESE
119°
ESE
122°
ESE
140°
SE
152°
SSE
142°
SE
132°
SE
131°
SE
136°
SE
151°
SSE
162°
SSE
166°
SSE
165°
SSE
156°
SSE
132°
SE
109°
ESE
97°
E
100°
E

Daily Forecast

Date High Low Precip. Humidity
Today
Aug 3

Rain
88 °F
69 °F
40%
50%
Wednesday
Aug 4

Clouds
89 °F
71 °F
0%
51%
Thursday
Aug 5

Clouds
91 °F
67 °F
0%
37%
Friday
Aug 6

Clear
93 °F
71 °F
0%
35%
Saturday
Aug 7

Clouds
95 °F
73 °F
0%
42%
Sunday
Aug 8

Clouds
98 °F
77 °F
0%
40%
Monday
Aug 9

Clouds
98 °F
76 °F
0%
39%
Tuesday
Aug 10

Clouds
97 °F
74 °F
0%
39%
Wednesday
Aug 11

Clear
99 °F
75 °F
0%
41%
Thursday
Aug 12

Clear
100 °F
75 °F
0%
35%
Friday
Aug 13

Rain
96 °F
71 °F
86%
42%
Saturday
Aug 14

Rain
93 °F
71 °F
66%
50%
Sunday
Aug 15

Rain
93 °F
72 °F
59%
50%
Monday
Aug 16

Rain
78 °F
74 °F
92%
84%
Tuesday
Aug 17

Rain
79 °F
72 °F
85%
91%
Wednesday
Aug 18

Rain
94 °F
69 °F
75%
50%

Temperature 8-14 Day Outlook



Precipitation 8-14 Day Outlook




Quick Links
Lake Fork Reservoir News
Lake Fork Reservoir Photos
Lake Fork Reservoir Videos




About Us
Contact Us
Site Map
Search Site
Advertise With Us
   
Fork.USLakes.info
THE LAKE FORK RESERVOIR WEBSITE

Copyright 2021, Lakes Online
Privacy    |    Legal